Time,TemperatureF,DewpointF,PressureIn,WindDirection,WindDirectionDegrees,WindSpeedMPH,WindSpeedGustMPH,Humidity,HourlyPrecipIn,Conditions,Clouds,dailyrainin,SoftwareType,DateUTC
2013-11-01 00:03:00,46.0,44.4,29.85,NE,45,0.0,0.0,94,0.00,,,0.00,WUHU21623XXSP,2013-11-01 05:03:00,
2013-11-01 00:08:00,46.0,44.4,29.85,NE,45,0.0,0.0,94,0.00,,,0.00,WUHU21623XXSP,2013-11-01 05:08:00,
2013-11-01 00:13:00,45.9,44.2,29.85,NE,45,0.0,0.0,94,0.00,,,0.00,WUHU21623XXSP,2013-11-01 05:13:00,
2013-11-01 00:18:00,45.7,44.1,29.85,NE,45,0.0,0.0,94,0.00,,,0.00,WUHU21623XXSP,2013-11-01 05:18:00,
2013-11-01 00:23:00,45.7,44.1,29.85,NE,45,0.0,0.0,94,0.00,,,0.00,WUHU21623XXSP,2013-11-01 05:23:00,
2013-11-01 00:28:00,45.7,44.1,29.85,NE,45,0.0,0.0,94,0.00,,,0.00,WUHU21623XXSP,2013-11-01 05:28:00,
2013-11-01 00:33:00,45.7,44.1,29.86,NE,45,0.0,0.0,94,0.00,,,0.00,WUHU21623XXSP,2013-11-01 05:33:00,
2013-11-01 00:38:00,45.7,44.1,29.86,NE,45,0.0,0.0,94,0.00,,,0.00,WUHU21623XXSP,2013-11-01 05:38:00,
2013-11-01 00:43:00,45.7,44.1,29.86,NE,45,0.0,0.0,94,0.00,,,0.00,WUHU21623XXSP,2013-11-01 05:43:00,
2013-11-01 00:48:00,45.7,44.1,29.86,NE,45,0.0,0.0,94,0.00,,,0.00,WUHU21623XXSP,2013-11-01 05:48:00,
2013-11-01 00:53:00,45.7,44.1,29.86,NE,45,0.0,0.0,94,0.00,,,0.00,WUHU21623XXSP,2013-11-01 05:53:00,
2013-11-01 00:58:00,45.7,44.1,29.86,NE,45,0.0,0.0,94,0.00,,,0.00,WUHU21623XXSP,2013-11-01 05:58:00,
2013-11-01 01:03:00,45.7,44.1,29.86,NE,45,0.0,0.0,94,0.00,,,0.00,WUHU21623XXSP,2013-11-01 06:03:00,
2013-11-01 01:15:00,45.7,44.1,29.86,NE,45,0.0,0.0,94,0.00,,,0.00,WUHU21623XXSP,2013-11-01 06:15:00,
2013-11-01 01:20:00,45.5,43.9,29.85,NE,45,0.0,0.0,94,0.00,,,0.00,WUHU21623XXSP,2013-11-01 06:20:00,
2013-11-01 01:25:00,45.3,43.7,29.85,NE,45,0.0,0.0,94,0.00,,,0.00,WUHU21623XXSP,2013-11-01 06:25:00,
2013-11-01 01:30:00,45.0,43.3,29.85,NE,45,0.0,0.0,94,0.00,,,0.00,WUHU21623XXSP,2013-11-01 06:30:00,
2013-11-01 01:35:00,44.8,43.2,29.85,NE,45,0.0,0.0,94,0.00,,,0.00,WUHU21623XXSP,2013-11-01 06:35:00,
2013-11-01 01:40:00,44.4,42.8,29.85,NE,45,0.0,0.0,94,0.00,,,0.00,WUHU21623XXSP,2013-11-01 06:40:00,
2013-11-01 01:45:00,44.2,42.6,29.84,NE,45,0.0,0.0,94,0.00,,,0.00,WUHU21623XXSP,2013-11-01 06:45:00,
2013-11-01 01:50:00,44.1,42.4,29.84,NE,45,0.0,0.0,94,0.00,,,0.00,WUHU21623XXSP,2013-11-01 06:50:00,
2013-11-01 01:55:00,43.9,42.3,29.85,NE,45,0.0,0.0,94,0.00,,,0.00,WUHU21623XXSP,2013-11-01 06:55:00,
2013-11-01 02:00:00,43.7,42.1,29.85,NE,45,0.0,0.0,94,0.00,,,0.00,WUHU21623XXSP,2013-11-01 07:00:00,
2013-11-01 02:05:00,43.5,41.9,29.85,NE,45,0.0,0.0,94,0.00,,,0.00,WUHU21623XXSP,2013-11-01 07:05:00,
2013-11-01 02:10:00,43.3,41.7,29.85,NE,45,0.0,0.0,94,0.00,,,0.00,WUHU21623XXSP,2013-11-01 07:10:00,
2013-11-01 02:15:00,43.3,41.7,29.86,NE,45,0.0,0.0,94,0.00,,,0.00,WUHU21623XXSP,2013-11-01 07:15:00,
2013-11-01 02:20:00,43.7,42.1,29.85,NE,45,0.0,0.0,94,0.00,,,0.00,WUHU21623XXSP,2013-11-01 07:20:00,
2013-11-01 02:25:00,44.1,42.4,29.85,NE,45,0.0,0.0,94,0.00,,,0.00,WUHU21623XXSP,2013-11-01 07:25:00,
2013-11-01 02:30:00,44.4,42.8,29.85,NE,45,0.0,0.0,94,0.00,,,0.00,WUHU21623XXSP,2013-11-01 07:30:00,
2013-11-01 02:35:00,44.8,43.2,29.85,NE,45,0.0,0.0,94,0.00,,,0.00,WUHU21623XXSP,2013-11-01 07:35:00,
2013-11-01 02:40:00,45.0,43.3,29.85,NE,45,0.0,0.0,94,0.00,,,0.00,WUHU21623XXSP,2013-11-01 07:40:00,
2013-11-01 02:45:00,45.1,43.5,29.84,NE,45,0.0,0.0,94,0.00,,,0.00,WUHU21623XXSP,2013-11-01 07:45:00,
2013-11-01 02:50:00,45.3,43.7,29.84,NE,45,0.0,0.0,94,0.00,,,0.00,WUHU21623XXSP,2013-11-01 07:50:00,
2013-11-01 02:55:00,45.3,43.7,29.84,NE,45,0.0,0.0,94,0.00,,,0.00,WUHU21623XXSP,2013-11-01 07:55:00,
2013-11-01 03:00:00,45.5,43.9,29.84,NE,45,0.0,0.0,94,0.00,,,0.00,WUHU21623XXSP,2013-11-01 08:00:00,
2013-11-01 03:05:00,45.5,43.9,29.84,NE,45,0.0,0.0,94,0.00,,,0.00,WUHU21623XXSP,2013-11-01 08:05:00,
2013-11-01 03:10:00,45.5,43.9,29.84,NE,45,0.0,0.0,94,0.00,,,0.00,WUHU21623XXSP,2013-11-01 08:10:00,
2013-11-01 03:15:00,45.7,44.1,29.84,NE,45,0.0,0.0,94,0.00,,,0.00,WUHU21623XXSP,2013-11-01 08:15:00,
2013-11-01 03:20:00,45.7,44.1,29.83,NE,45,0.0,0.0,94,0.00,,,0.00,WUHU21623XXSP,2013-11-01 08:20:00,
2013-11-01 03:25:00,45.7,44.1,29.83,NE,45,0.0,0.0,94,0.00,,,0.00,WUHU21623XXSP,2013-11-01 08:25:00,
2013-11-01 03:30:00,45.7,44.1,29.84,NE,45,0.0,0.0,94,0.00,,,0.00,WUHU21623XXSP,2013-11-01 08:30:00,
2013-11-01 03:35:00,45.7,44.1,29.84,NE,45,0.0,0.0,94,0.00,,,0.00,WUHU21623XXSP,2013-11-01 08:35:00,
2013-11-01 03:40:00,45.7,44.1,29.84,NE,45,0.0,0.0,94,0.00,,,0.00,WUHU21623XXSP,2013-11-01 08:40:00,
2013-11-01 03:45:00,45.7,44.1,29.84,NE,45,0.0,0.0,94,0.00,,,0.00,WUHU21623XXSP,2013-11-01 08:45:00,
2013-11-01 03:50:00,45.7,44.1,29.84,NE,45,0.0,0.0,94,0.00,,,0.00,WUHU21623XXSP,2013-11-01 08:50:00,
2013-11-01 03:55:00,45.7,44.1,29.84,NE,45,0.0,0.0,94,0.00,,,0.00,WUHU21623XXSP,2013-11-01 08:55:00,
2013-11-01 04:00:00,45.7,44.1,29.84,NE,45,0.0,0.0,94,0.00,,,0.00,WUHU21623XXSP,2013-11-01 09:00:00,
2013-11-01 04:05:00,45.7,44.1,29.84,NE,45,0.0,0.0,94,0.00,,,0.00,WUHU21623XXSP,2013-11-01 09:05:00,
2013-11-01 04:10:00,45.7,44.1,29.84,NE,45,0.0,0.0,94,0.00,,,0.00,WUHU21623XXSP,2013-11-01 09:10:00,
2013-11-01 04:15:00,45.7,44.1,29.84,NE,45,0.0,0.0,94,0.00,,,0.00,WUHU21623XXSP,2013-11-01 09:15:00,
2013-11-01 04:20:00,45.7,44.1,29.84,NE,45,0.0,0.0,94,0.00,,,0.00,WUHU21623XXSP,2013-11-01 09:20:00,
2013-11-01 04:25:00,45.7,44.1,29.83,NE,45,0.0,0.0,94,0.00,,,0.00,WUHU21623XXSP,2013-11-01 09:25:00,
2013-11-01 04:30:00,45.7,44.1,29.84,NE,45,0.0,0.0,94,0.00,,,0.00,WUHU21623XXSP,2013-11-01 09:30:00,
2013-11-01 04:35:00,45.5,43.9,29.84,NE,45,0.0,0.0,94,0.00,,,0.00,WUHU21623XXSP,2013-11-01 09:35:00,
2013-11-01 04:40:00,45.5,43.9,29.84,NE,45,0.0,0.0,94,0.00,,,0.00,WUHU21623XXSP,2013-11-01 09:40:00,
2013-11-01 04:45:00,45.5,43.9,29.84,NE,45,0.0,0.0,94,0.00,,,0.00,WUHU21623XXSP,2013-11-01 09:45:00,
2013-11-01 04:50:00,45.5,43.9,29.84,NE,45,0.0,0.0,94,0.00,,,0.00,WUHU21623XXSP,2013-11-01 09:50:00,
2013-11-01 04:55:00,45.5,43.9,29.84,NE,45,0.0,0.0,94,0.00,,,0.00,WUHU21623XXSP,2013-11-01 09:55:00,
2013-11-01 05:00:00,45.5,43.9,29.84,NE,45,0.0,0.0,94,0.00,,,0.00,WUHU21623XXSP,2013-11-01 10:00:00,
2013-11-01 05:05:00,45.5,43.9,29.84,NE,45,0.0,0.0,94,0.00,,,0.00,WUHU21623XXSP,2013-11-01 10:05:00,
2013-11-01 05:10:00,45.5,43.9,29.84,NE,45,0.0,0.0,94,0.00,,,0.00,WUHU21623XXSP,2013-11-01 10:10:00,
2013-11-01 05:15:00,45.5,43.9,29.84,NE,45,0.0,0.0,94,0.00,,,0.00,WUHU21623XXSP,2013-11-01 10:15:00,
2013-11-01 05:20:00,45.3,43.7,29.84,NE,45,0.0,0.0,94,0.00,,,0.00,WUHU21623XXSP,2013-11-01 10:20:00,
2013-11-01 05:25:00,45.1,43.7,29.84,NE,45,0.0,0.0,94,0.00,,,0.00,WUHU21623XXSP,2013-11-01 10:25:00,
2013-11-01 05:30:00,45.0,43.5,29.84,NE,45,0.0,0.0,94,0.00,,,0.00,WUHU21623XXSP,2013-11-01 10:30:00,
2013-11-01 05:35:00,44.4,42.8,29.84,NE,45,0.0,0.0,94,0.00,,,0.00,WUHU21623XXSP,2013-11-01 10:35:00,
2013-11-01 05:40:00,44.2,42.8,29.84,NE,45,0.0,0.0,94,0.00,,,0.00,WUHU21623XXSP,2013-11-01 10:40:00,
2013-11-01 05:45:00,43.7,42.3,29.84,NE,45,0.0,0.0,94,0.00,,,0.00,WUHU21623XXSP,2013-11-01 10:45:00,
2013-11-01 05:50:00,43.3,41.7,29.84,NE,45,0.0,0.0,94,0.00,,,0.00,WUHU21623XXSP,2013-11-01 10:50:00,
2013-11-01 05:55:00,43.2,41.5,29.84,NE,45,0.0,0.0,94,0.00,,,0.00,WUHU21623XXSP,2013-11-01 10:55:00,
2013-11-01 06:00:00,42.6,41.4,29.85,NE,45,0.0,0.0,94,0.00,,,0.00,WUHU21623XXSP,2013-11-01 11:00:00,
2013-11-01 06:05:00,42.4,41.0,29.85,NE,45,0.0,0.0,94,0.00,,,0.00,WUHU21623XXSP,2013-11-01 11:05:00,
2013-11-01 06:10:00,42.1,40.5,29.85,NE,45,0.0,0.0,94,0.00,,,0.00,WUHU21623XXSP,2013-11-01 11:10:00,
2013-11-01 06:15:00,42.1,40.5,29.85,NE,45,0.0,0.0,94,0.00,,,0.00,WUHU21623XXSP,2013-11-01 11:15:00,
2013-11-01 06:20:00,41.7,40.1,29.85,NE,45,0.0,0.0,94,0.00,,,0.00,WUHU21623XXSP,2013-11-01 11:20:00,
2013-11-01 06:25:00,41.5,39.9,29.85,NE,45,0.0,0.0,94,0.00,,,0.00,WUHU21623XXSP,2013-11-01 11:25:00,
2013-11-01 06:30:00,41.5,39.9,29.85,NE,45,0.0,0.0,94,0.00,,,0.00,WUHU21623XXSP,2013-11-01 11:30:00,
2013-11-01 06:35:00,41.2,39.6,29.85,NE,45,0.0,0.0,94,0.00,,,0.00,WUHU21623XXSP,2013-11-01 11:35:00,
2013-11-01 06:40:00,41.0,39.4,29.86,NE,45,0.0,0.0,94,0.00,,,0.00,WUHU21623XXSP,2013-11-01 11:40:00,
2013-11-01 06:45:00,40.8,39.2,29.86,NE,45,0.0,0.0,94,0.00,,,0.00,WUHU21623XXSP,2013-11-01 11:45:00,
2013-11-01 06:50:00,40.8,39.2,29.86,NE,45,0.0,0.0,94,0.00,,,0.00,WUHU21623XXSP,2013-11-01 11:50:00,
2013-11-01 06:55:00,40.8,39.2,29.86,NE,45,0.0,0.0,94,0.00,,,0.00,WUHU21623XXSP,2013-11-01 11:55:00,
2013-11-01 07:00:00,40.8,39.2,29.87,NE,45,0.0,0.0,94,0.00,,,0.00,WUHU21623XXSP,2013-11-01 12:00:00,
2013-11-01 07:05:00,40.6,39.2,29.87,NE,45,0.0,0.0,94,0.00,,,0.00,WUHU21623XXSP,2013-11-01 12:05:00,
2013-11-01 07:10:00,40.6,39.0,29.87,NE,45,0.0,0.0,94,0.00,,,0.00,WUHU21623XXSP,2013-11-01 12:10:00,
2013-11-01 07:15:00,40.5,39.0,29.87,NE,45,0.0,0.0,94,0.00,,,0.00,WUHU21623XXSP,2013-11-01 12:15:00,
2013-11-01 07:20:00,40.5,38.8,29.88,NE,45,0.0,0.0,94,0.00,,,0.00,WUHU21623XXSP,2013-11-01 12:20:00,
2013-11-01 07:25:00,40.3,38.8,29.88,NE,45,0.0,0.0,94,0.00,,,0.00,WUHU21623XXSP,2013-11-01 12:25:00,
2013-11-01 07:30:00,40.3,38.7,29.88,NE,45,0.0,0.0,94,0.00,,,0.00,WUHU21623XXSP,2013-11-01 12:30:00,
2013-11-01 07:35:00,40.5,38.8,29.88,NE,45,0.0,0.0,94,0.00,,,0.00,WUHU21623XXSP,2013-11-01 12:35:00,
2013-11-01 07:40:00,40.6,38.8,29.88,NE,45,0.0,0.0,94,0.00,,,0.00,WUHU21623XXSP,2013-11-01 12:40:00,
2013-11-01 07:45:00,40.6,39.0,29.88,NE,45,0.0,0.0,94,0.00,,,0.00,WUHU21623XXSP,2013-11-01 12:45:00,
2013-11-01 07:50:00,40.8,39.2,29.89,NE,45,0.0,0.0,94,0.00,,,0.00,WUHU21623XXSP,2013-11-01 12:50:00,
2013-11-01 07:55:00,40.8,39.2,29.89,NE,45,0.0,0.0,94,0.00,,,0.00,WUHU21623XXSP,2013-11-01 12:55:00,
2013-11-01 08:43:00,43.3,41.7,29.90,NE,45,0.0,0.0,94,0.00,,,0.00,WUHU21623XXSP,2013-11-01 13:43:00,
2013-11-01 08:48:00,43.5,41.9,29.91,NE,45,0.0,0.0,94,0.00,,,0.00,WUHU21623XXSP,2013-11-01 13:48:00,
2013-11-01 08:53:00,43.7,42.1,29.90,NE,45,0.0,0.0,94,0.00,,,0.00,WUHU21623XXSP,2013-11-01 13:53:00,
2013-11-01 08:58:00,44.2,42.4,29.91,NE,45,0.0,0.0,94,0.00,,,0.00,WUHU21623XXSP,2013-11-01 13:58:00,
2013-11-01 09:03:00,45.0,43.3,29.91,NE,45,0.0,0.0,94,0.00,,,0.00,WUHU21623XXSP,2013-11-01 14:03:00,
2013-11-01 09:08:00,45.7,44.3,29.91,NE,45,0.0,0.0,95,0.00,,,0.00,WUHU21623XXSP,2013-11-01 14:08:00,
2013-11-01 09:13:00,46.2,44.9,29.92,NE,45,0.0,0.0,95,0.00,,,0.00,WUHU21623XXSP,2013-11-01 14:13:00,
2013-11-01 09:18:00,47.1,45.5,29.92,NE,45,0.0,0.0,94,0.00,,,0.00,WUHU21623XXSP,2013-11-01 14:18:00,
2013-11-01 09:23:00,47.5,45.9,29.92,NE,45,0.0,0.0,94,0.00,,,0.00,WUHU21623XXSP,2013-11-01 14:23:00,
2013-11-01 09:28:00,48.2,46.6,29.92,NE,45,0.0,0.0,94,0.00,,,0.00,WUHU21623XXSP,2013-11-01 14:28:00,
2013-11-01 09:33:00,48.7,46.9,29.92,NE,45,0.0,0.0,94,0.00,,,0.00,WUHU21623XXSP,2013-11-01 14:33:00,
2013-11-01 09:38:00,48.9,47.4,29.92,NE,45,0.0,0.0,94,0.00,,,0.00,WUHU21623XXSP,2013-11-01 14:38:00,
2013-11-01 09:43:00,49.6,47.9,29.92,NE,45,0.0,0.0,94,0.00,,,0.00,WUHU21623XXSP,2013-11-01 14:43:00,
2013-11-01 09:48:00,49.8,48.1,29.92,NE,45,0.0,0.0,94,0.00,,,0.00,WUHU21623XXSP,2013-11-01 14:48:00,
2013-11-01 09:53:00,49.8,48.1,29.92,NE,45,0.0,0.0,94,0.00,,,0.00,WUHU21623XXSP,2013-11-01 14:53:00,
2013-11-01 09:58:00,50.7,49.1,29.92,NE,45,0.0,0.0,95,0.00,,,0.00,WUHU21623XXSP,2013-11-01 14:58:00,
2013-11-01 10:03:00,50.9,49.2,29.92,NE,45,0.0,0.0,94,0.00,,,0.00,WUHU21623XXSP,2013-11-01 15:03:00,
2013-11-01 10:08:00,51.1,49.4,29.92,NE,45,0.0,0.0,94,0.00,,,0.00,WUHU21623XXSP,2013-11-01 15:08:00,
2013-11-01 10:13:00,51.6,49.7,29.92,NE,45,0.0,0.0,94,0.00,,,0.00,WUHU21623XXSP,2013-11-01 15:13:00,
2013-11-01 10:18:00,52.0,50.3,29.92,NE,45,0.0,0.0,94,0.00,,,0.00,WUHU21623XXSP,2013-11-01 15:18:00,
2013-11-01 10:23:00,52.3,50.4,29.92,NE,45,0.0,0.0,94,0.00,,,0.00,WUHU21623XXSP,2013-11-01 15:23:00,
2013-11-01 10:28:00,52.9,51.2,29.92,NE,45,0.0,0.0,94,0.00,,,0.00,WUHU21623XXSP,2013-11-01 15:28:00,
2013-11-01 10:33:00,53.1,51.3,29.92,NE,45,0.0,0.0,94,0.00,,,0.00,WUHU21623XXSP,2013-11-01 15:33:00,
2013-11-01 10:38:00,53.2,51.5,29.92,NE,45,0.0,0.0,94,0.00,,,0.00,WUHU21623XXSP,2013-11-01 15:38:00,
2013-11-01 10:43:00,53.8,52.1,29.92,NE,45,0.0,0.0,94,0.00,,,0.00,WUHU21623XXSP,2013-11-01 15:43:00,
2013-11-01 10:48:00,54.1,52.4,29.92,NE,45,0.0,0.0,94,0.00,,,0.00,WUHU21623XXSP,2013-11-01 15:48:00,
2013-11-01 10:53:00,55.0,53.3,29.92,NE,45,0.0,0.0,94,0.00,,,0.00,WUHU21623XXSP,2013-11-01 15:53:00,
2013-11-01 10:58:00,55.0,53.3,29.92,NE,45,0.0,0.0,94,0.00,,,0.00,WUHU21623XXSP,2013-11-01 15:58:00,
2013-11-01 11:33:00,61.5,59.2,29.92,NE,45,0.0,0.0,92,0.00,,,0.00,WUHU21623XXSP,2013-11-01 16:33:00,
2013-11-01 11:38:00,62.4,60.1,29.92,NE,45,0.0,0.0,92,0.00,,,0.00,WUHU21623XXSP,2013-11-01 16:38:00,
2013-11-01 11:43:00,63.9,61.6,29.92,NE,45,0.0,0.0,92,0.00,,,0.00,WUHU21623XXSP,2013-11-01 16:43:00,
2013-11-01 11:48:00,64.9,62.3,29.92,NE,45,0.0,0.0,91,0.00,,,0.00,WUHU21623XXSP,2013-11-01 16:48:00,
2013-11-01 11:53:00,66.2,63.1,29.93,NE,45,0.0,0.0,90,0.00,,,0.00,WUHU21623XXSP,2013-11-01 16:53:00,
2013-11-01 11:58:00,68.5,65.1,29.93,NE,45,0.0,0.0,89,0.00,,,0.00,WUHU21623XXSP,2013-11-01 16:58:00,
2013-11-01 12:03:00,69.6,66.2,29.92,NE,45,0.0,0.0,89,0.00,,,0.00,WUHU21623XXSP,2013-11-01 17:03:00,
2013-11-01 12:08:00,70.5,66.8,29.92,NE,45,0.0,0.0,88,0.00,,,0.00,WUHU21623XXSP,2013-11-01 17:08:00,
2013-11-01 12:13:00,70.9,66.5,29.92,NE,45,17.0,17.0,86,0.00,,,0.00,WUHU21623XXSP,2013-11-01 17:13:00,
2013-11-01 12:18:00,70.9,66.8,29.93,NE,45,0.0,17.0,87,0.00,,,0.00,WUHU21623XXSP,2013-11-01 17:18:00,
2013-11-01 12:23:00,71.2,67.2,29.93,NE,45,0.0,0.0,87,0.00,,,0.00,WUHU21623XXSP,2013-11-01 17:23:00,
2013-11-01 12:28:00,72.1,67.7,29.92,NE,45,0.0,0.0,87,0.00,,,0.00,WUHU21623XXSP,2013-11-01 17:28:00,
2013-11-01 12:33:00,72.7,68.6,29.92,NE,45,0.0,0.0,87,0.00,,,0.00,WUHU21623XXSP,2013-11-01 17:33:00,
2013-11-01 12:38:00,73.0,67.9,29.92,NE,45,0.0,0.0,84,0.00,,,0.00,WUHU21623XXSP,2013-11-01 17:38:00,
2013-11-01 12:43:00,73.2,68.8,29.92,NE,45,0.0,0.0,86,0.00,,,0.00,WUHU21623XXSP,2013-11-01 17:43:00,
2013-11-01 12:48:00,73.8,68.6,29.92,NE,45,0.0,0.0,86,0.00,,,0.00,WUHU21623XXSP,2013-11-01 17:48:00,
2013-11-01 12:53:00,73.9,69.9,29.91,NNW,337,0.0,0.0,87,0.00,,,0.00,WUHU21623XXSP,2013-11-01 17:53:00,
2013-11-01 12:58:00,74.1,70.4,29.92,NNW,337,0.0,0.0,88,0.00,,,0.00,WUHU21623XXSP,2013-11-01 17:58:00,
2013-11-01 13:03:00,74.8,71.4,29.91,NNW,337,0.0,8.1,89,0.00,,,0.00,WUHU21623XXSP,2013-11-01 18:03:00,
2013-11-01 13:08:00,75.4,70.9,29.91,WSW,247,0.0,8.1,86,0.00,,,0.00,WUHU21623XXSP,2013-11-01 18:08:00,
2013-11-01 13:13:00,75.9,71.5,29.91,WSW,247,0.0,0.0,86,0.00,,,0.00,WUHU21623XXSP,2013-11-01 18:13:00,
2013-11-01 13:18:00,76.1,71.6,29.91,NNW,337,0.0,0.0,86,0.00,,,0.00,WUHU21623XXSP,2013-11-01 18:18:00,
2013-11-01 13:23:00,76.3,71.8,29.91,West,270,0.0,0.0,86,0.00,,,0.00,WUHU21623XXSP,2013-11-01 18:23:00,
2013-11-01 13:28:00,76.3,71.8,29.91,WSW,247,0.0,0.0,86,0.00,,,0.00,WUHU21623XXSP,2013-11-01 18:28:00,
2013-11-01 13:33:00,76.1,71.6,29.90,NNW,337,0.0,0.0,86,0.00,,,0.00,WUHU21623XXSP,2013-11-01 18:33:00,
2013-11-01 13:38:00,76.3,71.8,29.90,NNW,337,0.0,0.0,86,0.00,,,0.00,WUHU21623XXSP,2013-11-01 18:38:00,
2013-11-01 13:43:00,76.1,71.6,29.90,NNW,337,0.0,0.0,86,0.00,,,0.00,WUHU21623XXSP,2013-11-01 18:43:00,
2013-11-01 13:48:00,75.7,71.8,29.90,NNW,337,0.0,0.0,86,0.00,,,0.00,WUHU21623XXSP,2013-11-01 18:48:00,
2013-11-01 13:53:00,75.9,71.5,29.90,West,270,0.0,0.0,86,0.00,,,0.00,WUHU21623XXSP,2013-11-01 18:53:00,
2013-11-01 13:58:00,76.6,72.1,29.89,NNW,337,0.0,0.0,86,0.00,,,0.00,WUHU21623XXSP,2013-11-01 18:58:00,
2013-11-01 14:03:00,76.6,72.1,29.90,NNW,337,0.0,0.0,86,0.00,,,0.00,WUHU21623XXSP,2013-11-01 19:03:00,
2013-11-01 14:08:00,76.3,71.1,29.89,NNW,337,0.0,0.0,84,0.00,,,0.00,WUHU21623XXSP,2013-11-01 19:08:00,
2013-11-01 14:13:00,76.1,70.9,29.89,SSW,202,0.0,0.0,84,0.00,,,0.00,WUHU21623XXSP,2013-11-01 19:13:00,
2013-11-01 14:18:00,75.7,69.9,29.89,SSW,202,0.0,0.0,82,0.00,,,0.00,WUHU21623XXSP,2013-11-01 19:18:00,
2013-11-01 14:23:00,75.7,68.0,29.89,SSW,202,0.0,9.2,77,0.00,,,0.00,WUHU21623XXSP,2013-11-01 19:23:00,
2013-11-01 14:28:00,74.5,66.1,29.89,SW,225,0.0,9.2,75,0.00,,,0.00,WUHU21623XXSP,2013-11-01 19:28:00,
2013-11-01 14:33:00,73.6,65.9,29.89,SSW,202,0.0,5.1,77,0.00,,,0.00,WUHU21623XXSP,2013-11-01 19:33:00,
2013-11-01 14:38:00,74.5,69.0,29.89,SSW,202,0.0,0.0,83,0.00,,,0.00,WUHU21623XXSP,2013-11-01 19:38:00,
2013-11-01 14:43:00,74.5,69.4,29.89,SSW,202,0.0,0.0,84,0.00,,,0.00,WUHU21623XXSP,2013-11-01 19:43:00,
2013-11-01 14:48:00,74.8,70.1,29.88,WNW,292,0.0,0.0,85,0.00,,,0.00,WUHU21623XXSP,2013-11-01 19:48:00,
2013-11-01 14:53:00,75.4,70.6,29.88,WSW,247,0.0,0.0,85,0.00,,,0.00,WUHU21623XXSP,2013-11-01 19:53:00,
2013-11-01 14:58:00,74.8,68.7,29.88,SW,225,0.0,0.0,81,0.00,,,0.00,WUHU21623XXSP,2013-11-01 19:58:00,
2013-11-01 15:03:00,75.0,68.9,29.88,SW,225,0.0,0.0,81,0.00,,,0.00,WUHU21623XXSP,2013-11-01 20:03:00,
2013-11-01 15:08:00,75.4,69.2,29.87,SSW,202,0.0,0.0,81,0.00,,,0.00,WUHU21623XXSP,2013-11-01 20:08:00,
2013-11-01 15:13:00,74.7,67.0,29.87,South,180,0.0,0.0,77,0.00,,,0.00,WUHU21623XXSP,2013-11-01 20:13:00,
2013-11-01 15:18:00,74.1,67.6,29.87,SSW,202,0.0,0.0,80,0.00,,,0.00,WUHU21623XXSP,2013-11-01 20:18:00,
2013-11-01 15:23:00,74.1,68.3,29.88,SSW,202,0.0,0.0,82,0.00,,,0.00,WUHU21623XXSP,2013-11-01 20:23:00,
2013-11-01 15:28:00,73.9,67.5,29.88,SE,135,0.0,0.0,80,0.00,,,0.00,WUHU21623XXSP,2013-11-01 20:28:00,
2013-11-01 15:34:00,73.9,68.5,29.88,NNW,337,0.0,0.0,83,0.00,,,0.00,WUHU21623XXSP,2013-11-01 20:34:00,
2013-11-01 15:39:00,74.3,69.3,29.88,SSW,202,6.7,6.7,84,0.00,,,0.00,WUHU21623XXSP,2013-11-01 20:39:00,
2013-11-01 15:44:00,74.3,68.2,29.88,WSW,247,0.0,6.7,81,0.00,,,0.00,WUHU21623XXSP,2013-11-01 20:44:00,
2013-11-01 15:49:00,74.1,68.7,29.88,WSW,247,0.0,2.0,83,0.00,,,0.00,WUHU21623XXSP,2013-11-01 20:49:00,
2013-11-01 15:54:00,74.1,69.3,29.89,WSW,247,0.0,0.0,85,0.00,,,0.00,WUHU21623XXSP,2013-11-01 20:54:00,
2013-11-01 15:59:00,73.9,68.8,29.89,NNW,337,0.0,0.0,84,0.00,,,0.00,WUHU21623XXSP,2013-11-01 20:59:00,
2013-11-01 16:04:00,73.6,68.5,29.89,NNW,337,0.0,0.0,84,0.00,,,0.00,WUHU21623XXSP,2013-11-01 21:04:00,
2013-11-01 16:09:00,73.0,68.1,29.89,NNW,337,0.0,0.0,83,0.00,,,0.00,WUHU21623XXSP,2013-11-01 21:09:00,
2013-11-01 16:14:00,72.3,67.2,29.89,WNW,292,0.0,0.0,84,0.00,,,0.00,WUHU21623XXSP,2013-11-01 21:14:00,
2013-11-01 16:19:00,72.1,67.0,29.89,NNW,337,0.0,0.0,84,0.00,,,0.00,WUHU21623XXSP,2013-11-01 21:19:00,
2013-11-01 16:24:00,71.8,67.4,29.89,NW,315,0.0,0.0,86,0.00,,,0.00,WUHU21623XXSP,2013-11-01 21:24:00,
2013-11-01 16:29:00,71.8,67.0,29.89,SW,225,0.0,0.0,85,0.00,,,0.00,WUHU21623XXSP,2013-11-01 21:29:00,
2013-11-01 16:34:00,71.4,66.7,29.90,SW,225,0.0,0.0,85,0.00,,,0.00,WUHU21623XXSP,2013-11-01 21:34:00,
2013-11-01 16:39:00,71.2,67.0,29.90,WSW,247,0.0,0.0,84,0.00,,,0.00,WUHU21623XXSP,2013-11-01 21:39:00,
2013-11-01 16:44:00,70.9,66.5,29.89,WSW,247,0.0,0.0,86,0.00,,,0.00,WUHU21623XXSP,2013-11-01 21:44:00,
2013-11-01 16:49:00,70.9,66.8,29.89,WSW,247,0.0,0.0,87,0.00,,,0.00,WUHU21623XXSP,2013-11-01 21:49:00,
2013-11-01 16:54:00,70.7,66.6,29.90,WSW,247,0.0,0.0,87,0.00,,,0.00,WUHU21623XXSP,2013-11-01 21:54:00,
2013-11-01 16:59:00,70.3,66.6,29.90,WSW,247,0.0,0.0,88,0.00,,,0.00,WUHU21623XXSP,2013-11-01 21:59:00,
2013-11-01 17:04:00,70.3,66.6,29.90,North,0,0.0,0.0,88,0.00,,,0.00,WUHU21623XXSP,2013-11-01 22:04:00,
2013-11-01 17:09:00,69.4,65.7,29.90,NNW,337,0.0,0.0,88,0.00,,,0.00,WUHU21623XXSP,2013-11-01 22:09:00,
2013-11-01 17:14:00,68.9,65.3,29.90,North,0,0.0,0.0,88,0.00,,,0.00,WUHU21623XXSP,2013-11-01 22:14:00,
2013-11-01 17:19:00,68.2,64.5,29.90,NNW,337,0.0,0.0,88,0.00,,,0.00,WUHU21623XXSP,2013-11-01 22:19:00,
2013-11-01 17:24:00,66.7,63.0,29.90,NNW,337,0.0,0.0,88,0.00,,,0.00,WUHU21623XXSP,2013-11-01 22:24:00,
2013-11-01 17:29:00,65.5,61.5,29.91,NNW,337,0.0,0.0,87,0.00,,,0.00,WUHU21623XXSP,2013-11-01 22:29:00,
2013-11-01 17:34:00,64.6,61.0,29.91,NNW,337,0.0,0.0,88,0.00,,,0.00,WUHU21623XXSP,2013-11-01 22:34:00,
2013-11-01 17:39:00,63.7,60.3,29.91,NNW,337,0.0,0.0,88,0.00,,,0.00,WUHU21623XXSP,2013-11-01 22:39:00,
2013-11-01 17:44:00,63.1,59.9,29.91,North,0,0.0,0.0,89,0.00,,,0.00,WUHU21623XXSP,2013-11-01 22:44:00,
2013-11-01 17:49:00,62.4,59.2,29.91,NNW,337,0.0,0.0,89,0.00,,,0.00,WUHU21623XXSP,2013-11-01 22:49:00,
2013-11-01 17:54:00,61.9,58.7,29.92,North,0,0.0,0.0,89,0.00,,,0.00,WUHU21623XXSP,2013-11-01 22:54:00,
2013-11-01 17:59:00,61.3,58.1,29.92,NNW,337,0.0,0.0,89,0.00,,,0.00,WUHU21623XXSP,2013-11-01 22:59:00,
2013-11-01 18:04:00,60.6,58.1,29.92,NNW,337,0.0,0.0,90,0.00,,,0.00,WUHU21623XXSP,2013-11-01 23:04:00,
2013-11-01 18:09:00,60.4,57.6,29.92,NNW,337,0.0,0.0,90,0.00,,,0.00,WUHU21623XXSP,2013-11-01 23:09:00,
2013-11-01 18:14:00,59.9,57.2,29.93,NNW,337,0.0,0.0,90,0.00,,,0.00,WUHU21623XXSP,2013-11-01 23:14:00,
2013-11-01 18:19:00,59.2,56.6,29.92,NNW,337,0.0,0.0,91,0.00,,,0.00,WUHU21623XXSP,2013-11-01 23:19:00,
2013-11-01 18:24:00,58.8,56.2,29.93,NNW,337,0.0,0.0,91,0.00,,,0.00,WUHU21623XXSP,2013-11-01 23:24:00,
2013-11-01 18:29:00,58.3,55.7,29.93,NNW,337,0.0,0.0,91,0.00,,,0.00,WUHU21623XXSP,2013-11-01 23:29:00,
2013-11-01 18:34:00,57.6,55.0,29.93,NNW,337,0.0,0.0,91,0.00,,,0.00,WUHU21623XXSP,2013-11-01 23:34:00,
2013-11-01 18:39:00,57.0,54.8,29.94,NNW,337,0.0,0.0,91,0.00,,,0.00,WUHU21623XXSP,2013-11-01 23:39:00,
2013-11-01 18:44:00,56.5,53.9,29.94,NNW,337,0.0,0.0,91,0.00,,,0.00,WUHU21623XXSP,2013-11-01 23:44:00,
2013-11-01 18:49:00,55.9,53.6,29.94,NNW,337,0.0,0.0,92,0.00,,,0.00,WUHU21623XXSP,2013-11-01 23:49:00,
2013-11-01 18:54:00,55.6,53.3,29.95,NNW,337,0.0,0.0,92,0.00,,,0.00,WUHU21623XXSP,2013-11-01 23:54:00,
2013-11-01 18:59:00,55.2,52.9,29.95,NNW,337,0.0,0.0,92,0.00,,,0.00,WUHU21623XXSP,2013-11-01 23:59:00,
2013-11-01 19:04:00,55.0,52.7,29.95,NNW,337,0.0,0.0,92,0.00,,,0.00,WUHU21623XXSP,2013-11-02 00:04:00,
2013-11-01 19:09:00,55.0,52.7,29.95,NNW,337,0.0,0.0,92,0.00,,,0.00,WUHU21623XXSP,2013-11-02 00:09:00,
2013-11-01 19:14:00,54.9,52.6,29.95,NNW,337,0.0,0.0,92,0.00,,,0.00,WUHU21623XXSP,2013-11-02 00:14:00,
2013-11-01 19:19:00,54.7,52.4,29.96,NNW,337,0.0,0.0,92,0.00,,,0.00,WUHU21623XXSP,2013-11-02 00:19:00,
2013-11-01 19:24:00,54.7,52.4,29.96,NNW,337,0.0,0.0,92,0.00,,,0.00,WUHU21623XXSP,2013-11-02 00:24:00,
2013-11-01 19:29:00,54.3,52.0,29.96,NNW,337,0.0,0.0,92,0.00,,,0.00,WUHU21623XXSP,2013-11-02 00:29:00,
2013-11-01 19:34:00,54.1,51.8,29.97,NNW,337,0.0,0.0,92,0.00,,,0.00,WUHU21623XXSP,2013-11-02 00:34:00,
2013-11-01 19:39:00,54.0,51.7,29.97,NNW,337,0.0,0.0,92,0.00,,,0.00,WUHU21623XXSP,2013-11-02 00:39:00,
2013-11-01 19:44:00,54.0,51.7,29.97,NNW,337,0.0,0.0,92,0.00,,,0.00,WUHU21623XXSP,2013-11-02 00:44:00,
2013-11-01 19:49:00,54.3,52.0,29.98,North,0,0.0,0.0,92,0.00,,,0.00,WUHU21623XXSP,2013-11-02 00:49:00,
2013-11-01 19:54:00,54.5,52.2,29.98,North,0,0.0,0.0,92,0.00,,,0.00,WUHU21623XXSP,2013-11-02 00:54:00,
2013-11-01 19:59:00,54.5,52.2,29.98,North,0,0.0,0.0,92,0.00,,,0.00,WUHU21623XXSP,2013-11-02 00:59:00,
2013-11-01 20:04:00,54.3,52.0,29.98,NNW,337,0.0,0.0,92,0.00,,,0.00,WUHU21623XXSP,2013-11-02 01:04:00,
2013-11-01 20:09:00,54.3,52.0,29.99,North,0,0.0,0.0,92,0.00,,,0.00,WUHU21623XXSP,2013-11-02 01:09:00,
2013-11-01 20:14:00,54.1,51.8,29.99,NNW,337,0.0,0.0,92,0.00,,,0.00,WUHU21623XXSP,2013-11-02 01:14:00,
2013-11-01 20:19:00,54.0,51.7,29.99,NNW,337,0.0,0.0,92,0.00,,,0.00,WUHU21623XXSP,2013-11-02 01:19:00,
2013-11-01 20:24:00,53.8,51.7,29.99,North,0,0.0,0.0,92,0.00,,,0.00,WUHU21623XXSP,2013-11-02 01:24:00,
2013-11-01 20:29:00,53.4,51.5,30.00,North,0,0.0,0.0,92,0.00,,,0.00,WUHU21623XXSP,2013-11-02 01:29:00,
2013-11-01 20:34:00,53.4,51.1,29.99,North,0,0.0,0.0,92,0.00,,,0.00,WUHU21623XXSP,2013-11-02 01:34:00,
2013-11-01 20:39:00,53.2,50.9,30.00,North,0,0.0,0.0,92,0.00,,,0.00,WUHU21623XXSP,2013-11-02 01:39:00,
2013-11-01 20:44:00,53.2,50.9,30.01,North,0,0.0,0.0,92,0.00,,,0.00,WUHU21623XXSP,2013-11-02 01:44:00,
2013-11-01 20:50:00,53.1,50.8,30.01,North,0,0.0,0.0,92,0.00,,,0.00,WUHU21623XXSP,2013-11-02 01:50:00,
2013-11-01 20:55:00,52.9,50.6,30.01,North,0,0.0,0.0,92,0.00,,,0.00,WUHU21623XXSP,2013-11-02 01:55:00,
2013-11-01 21:00:00,52.7,50.9,30.01,North,0,0.0,0.0,93,0.00,,,0.00,WUHU21623XXSP,2013-11-02 02:00:00,
2013-11-01 21:05:00,52.5,50.5,30.01,North,0,0.0,0.0,93,0.00,,,0.00,WUHU21623XXSP,2013-11-02 02:05:00,
2013-11-01 21:10:00,52.3,50.3,30.02,North,0,0.0,0.0,93,0.00,,,0.00,WUHU21623XXSP,2013-11-02 02:10:00,
2013-11-01 21:15:00,51.8,49.8,30.02,North,0,0.0,0.0,93,0.00,,,0.00,WUHU21623XXSP,2013-11-02 02:15:00,
2013-11-01 21:20:00,51.6,49.6,30.02,North,0,0.0,0.0,93,0.00,,,0.00,WUHU21623XXSP,2013-11-02 02:20:00,
2013-11-01 21:25:00,51.3,49.2,30.02,North,0,0.0,0.0,93,0.00,,,0.00,WUHU21623XXSP,2013-11-02 02:25:00,
2013-11-01 21:30:00,50.7,48.7,30.03,North,0,0.0,0.0,93,0.00,,,0.00,WUHU21623XXSP,2013-11-02 02:30:00,
2013-11-01 21:35:00,50.2,48.5,30.03,North,0,0.0,0.0,93,0.00,,,0.00,WUHU21623XXSP,2013-11-02 02:35:00,
2013-11-01 21:40:00,49.8,47.5,30.03,North,0,0.0,0.0,92,0.00,,,0.00,WUHU21623XXSP,2013-11-02 02:40:00,
2013-11-01 21:45:00,49.8,47.8,30.03,North,0,0.0,0.0,93,0.00,,,0.00,WUHU21623XXSP,2013-11-02 02:45:00,
2013-11-01 21:50:00,49.8,47.8,30.04,North,0,0.0,0.0,93,0.00,,,0.00,WUHU21623XXSP,2013-11-02 02:50:00,
2013-11-01 21:55:00,49.5,47.5,30.04,North,0,0.0,0.0,93,0.00,,,0.00,WUHU21623XXSP,2013-11-02 02:55:00,
2013-11-01 22:00:00,49.1,47.1,30.05,North,0,0.0,0.0,93,0.00,,,0.00,WUHU21623XXSP,2013-11-02 03:00:00,
2013-11-01 22:05:00,48.9,47.0,30.05,North,0,0.0,0.0,93,0.00,,,0.00,WUHU21623XXSP,2013-11-02 03:05:00,
2013-11-01 22:10:00,48.7,46.8,30.05,North,0,0.0,0.0,93,0.00,,,0.00,WUHU21623XXSP,2013-11-02 03:10:00,
2013-11-01 22:15:00,48.4,46.5,30.06,North,0,0.0,0.0,93,0.00,,,0.00,WUHU21623XXSP,2013-11-02 03:15:00,
2013-11-01 22:20:00,48.0,46.1,30.06,North,0,0.0,0.0,93,0.00,,,0.00,WUHU21623XXSP,2013-11-02 03:20:00,
2013-11-01 22:25:00,47.8,46.0,30.06,North,0,0.0,0.0,93,0.00,,,0.00,WUHU21623XXSP,2013-11-02 03:25:00,
2013-11-01 22:30:00,47.3,45.4,30.06,North,0,0.0,0.0,93,0.00,,,0.00,WUHU21623XXSP,2013-11-02 03:30:00,
2013-11-01 22:35:00,47.1,45.2,30.06,North,0,0.0,0.0,93,0.00,,,0.00,WUHU21623XXSP,2013-11-02 03:35:00,
2013-11-01 22:40:00,46.8,44.9,30.06,North,0,0.0,0.0,93,0.00,,,0.00,WUHU21623XXSP,2013-11-02 03:40:00,
2013-11-01 22:45:00,46.4,44.7,30.06,North,0,0.0,0.0,93,0.00,,,0.00,WUHU21623XXSP,2013-11-02 03:45:00,
2013-11-01 22:50:00,46.2,44.3,30.06,North,0,0.0,0.0,93,0.00,,,0.00,WUHU21623XXSP,2013-11-02 03:50:00,
2013-11-01 22:55:00,46.0,44.1,30.06,North,0,0.0,0.0,93,0.00,,,0.00,WUHU21623XXSP,2013-11-02 03:55:00,
2013-11-01 23:00:00,45.5,43.8,30.06,North,0,0.0,0.0,93,0.00,,,0.00,WUHU21623XXSP,2013-11-02 04:00:00,
2013-11-01 23:05:00,45.3,43.4,30.07,North,0,0.0,0.0,93,0.00,,,0.00,WUHU21623XXSP,2013-11-02 04:05:00,
2013-11-01 23:10:00,45.0,43.3,30.07,North,0,0.0,0.0,93,0.00,,,0.00,WUHU21623XXSP,2013-11-02 04:10:00,
2013-11-01 23:15:00,44.8,42.9,30.07,North,0,0.0,0.0,93,0.00,,,0.00,WUHU21623XXSP,2013-11-02 04:15:00,
2013-11-01 23:20:00,44.4,42.5,30.06,North,0,0.0,0.0,93,0.00,,,0.00,WUHU21623XXSP,2013-11-02 04:20:00,
2013-11-01 23:25:00,44.4,42.5,30.06,North,0,0.0,0.0,93,0.00,,,0.00,WUHU21623XXSP,2013-11-02 04:25:00,
2013-11-01 23:30:00,44.1,42.4,30.07,North,0,0.0,0.0,93,0.00,,,0.00,WUHU21623XXSP,2013-11-02 04:30:00,
2013-11-01 23:35:00,43.9,42.0,30.06,North,0,0.0,0.0,93,0.00,,,0.00,WUHU21623XXSP,2013-11-02 04:35:00,
2013-11-01 23:40:00,43.5,41.8,30.06,North,0,0.0,0.0,93,0.00,,,0.00,WUHU21623XXSP,2013-11-02 04:40:00,
2013-11-01 23:45:00,43.3,41.5,30.06,North,0,0.0,0.0,93,0.00,,,0.00,WUHU21623XXSP,2013-11-02 04:45:00,
2013-11-01 23:50:00,43.2,41.3,30.06,North,0,0.0,0.0,93,0.00,,,0.00,WUHU21623XXSP,2013-11-02 04:50:00,
2013-11-01 23:55:00,43.0,41.1,30.06,North,0,0.0,0.0,93,0.00,,,0.00,WUHU21623XXSP,2013-11-02 04:55:00,